Location: Kalberh�ni
(46.4610°N, 7.2453°E)
Time: 00:34:22
(UTC+00:00)

Meteor 2-11 Rocket - Pass Details

Date: 20 June 2021
Orbit: 938 x 958 km, 82.5° (Epoch: 25 July)

Event Time Altitude Azimuth Distance (km) Brightness Sun altitude
Rises 20:43:55 0° 350° (N) 3,631 8.7 -10.4°
Reaches altitude 10° 20:46:25 10° 350° (N) 2,679 7.9 -10.6°
Maximum altitude 20:52:34 85° 262° (W) 954 4.5 -11.3°
Enters shadow 20:58:34 10° 176° (S) 2,630 6.3 -11.9°
